Terminal Aerodrome Forecast
Issued by NWS Central Illinois

Home | Current Version | Previous Version | Text Only | Print | Product List | Glossary On
Versions: 1 2 3 4 5 6 7 8 9 10 11 12 13 14 15 16 17 18 19 20 21 22 23 24 25 26 27 28 29 30 31 32 33 34 35
770
FTUS43 KILX 180520
TAFSPI
TAF
KSPI 180520Z 1806/1906 27008KT P6SM OVC010
     FM180900 28006KT 5SM BR OVC007
     FM181500 24006KT 5SM BR BKN012
     FM181700 22007KT P6SM SCT025
     FM182300 20005KT P6SM SCT150=

USA.gov is the U.S. government's official web portal to all federal, state and local government web resources and services.